weather.gov     
National Weather Service

Regional Weather Roundup
NWS Homepage
This page is being discontinued on March 12, 2014.
The same data is available at this site. Please update your bookmarks.
Thank you, and we apologize for the inconvenience.
Please send an email to SR-SRH.Webmaster@noaa.gov with any concerns.


Current Version
Previous Version:    01  02  03  04  05  06  07  08  09  10  11  12  13  14  15  16  17  18  19  20  21  22  23  24  25  26  27  28  29  30  
   31  32  33  34  35  36  37  38  39  40  41  42  43  44  45  46  47  48  49  50  51  52  53  
[Printable]
293
ASUS41 KGYX 202110
RWRGYX
WEATHER ROUNDUP FOR MAINE AND NEW HAMPSHIRE
NATIONAL WEATHER SERVICE GRAY ME
500 PM EDT MON OCT 20 2014

MEZ002-005-006-010-012-015-018-020-021-024-026-027-029-202200-
MAINE

CITY           SKY/WX    TMP DP  RH WIND       PRES   REMARKS
PORTLAND       PTCLDY    56  27  32 W8        29.94R
SANFORD        CLEAR     54  28  37 SW9       29.95R
BAR HARBOR     CLEAR     50  27  40 SW5       29.91S
WISCASSET      PTCLDY    51  30  44 SW7       29.95R
ROCKLAND       PTCLDY    48  28  46 SW9       29.92S
FRYEBURG       PTCLDY    52  26  36 SW10G17   29.92R
LEWISTONAUBURN MOCLDY    52  27  37 S7        29.92S
AUGUSTA        CLEAR     51  24  34 SW7       29.92R
WATERVILLE     CLEAR     52  25  35 SW8       29.88R
BANGOR         PTCLDY    49  24  37 SW9       29.91R
GREENVILLE       N/A     42  23  46 VRB5      29.84R
MILLINOCKET    CLEAR     48  24  39 W5G17     29.88R
HOULTON        CLEAR     45  25  45 W10       29.84R
PRESQUE ISLE   CLEAR     45  23  42 W9G17     29.82R
FRENCHVILLE    PTCLDY    40  23  50 W15G24    29.79R
CARIBOU        CLEAR     43  24  47 W7        29.81R
$$

NHZ002-005-008-009-011-012-014-202200-
NEW HAMPSHIRE

CITY           SKY/WX    TMP DP  RH WIND       PRES   REMARKS
PORTSMOUTH     MOCLDY    56  32  40 SW8       29.94R
ROCHESTER      CLEAR     54  30  40 CALM      29.94S
NASHUA         PTCLDY    55  34  45 W6G12     29.96S
MANCHESTER     PTCLDY    55  30  38 W7        29.94R
CONCORD        CLEAR     52  30  43 SW8       29.94S
LACONIA        CLEAR     52  30  43 SW10      29.92S
PLYMOUTH       FAIR      51  37  56 CALM      29.93S
BERLIN         MOCLDY    48  29  47 VRB3      29.91R
WHITEFIELD     PTCLDY    48  28  46 W6        29.92R
JAFFREY        CLEAR     51  33  50 SW8       29.95S
LEBANON        PTCLDY    52  34  50 SW3       29.92S
MT WASHINGTON  MOCLDY    21  14  73 NW37        N/A  WCI   1
$$

VTZ005-007-008-202200-
VERMONT

CITY           SKY/WX    TMP DP  RH WIND       PRES   REMARKS
ST JOHNSBURY     N/A     50  26  39 MISG      29.91S
MONTPELIER     CLOUDY    47  33  58 W3        29.95S
BURLINGTON     CLOUDY    49  35  58 CALM      29.93S
$$

MAZ007-012-024-CTZ003-RIZ002-NYZ038-NYZ072-202200-
SOUTHERN NEW ENGLAND AND NY

CITY           SKY/WX    TMP DP  RH WIND       PRES   REMARKS
BOSTON         PTCLDY    55  31  39 SW15      29.97R
WORCESTER      CLOUDY    50  33  52 SW13      29.97R
NANTUCKET      PTCLDY    54  41  61 SW17      30.02F
PROVIDENCE     MOCLDY    55  36  48 W6        29.99F
HARTFORD       CLOUDY    54  35  48 SW3       29.97F
ALBANY         PTSUNNY   52  34  50 S13       29.94F
NEW YORK CITY  PTSUNNY   60  38  43 S8        29.97F
$$

ANZ081-ANZ082-ANZ150-NHZ014-MEZ023>029-202200-
COASTAL MARINE OBSERVATIONS

STATION/POSITION TIME  TEMP    WIND        PRES    WAVE
                       AIR SEA DIR/SP/G            HT/PER
                 (UTC) (F)     (DEG/KT/KT) (MB)    (FT/S)
MATINICUS ROCK   2100          260/ 17/ 19 1013.3R
PORTLAND WX BUOY 2050   53 55  220/ 16/ 19 1013.4F   3/12
WELLS            2000   55 50  250/  6/ 12 1013.1S
ISLE OF SHOALS   2100   54     240/ 12/ 14 1013.6R
JEFFREYS LEDGE   2021      56                N/A     3/ 4
CASHES LEDGE BUO 2050   51 56  250/ 17/ 21 1013.9S   4/ 6
$$

.............KEY..............
   WCI - WIND CHILL
   TC  - TEMPERATURE IN CELSIUS
   VSB - VISIBILITY IN MILES
   HX  - HEAT INDEX
   FAIR- INDICATES FEW OR NO CLOUDS BELOW 12,000 FT, WITH NO
         SIGNIFICANT WEATHER AND/OR OBSTRUCTIONS TO VISIBILITY.






U.S. Dept. of Commerce
NOAA National Weather Service
1325 East West Highway
Silver Spring, MD 20910
E-mail: w-nws.webmaster@noaa.gov
Page last modified: May 16, 2007
NATIONAL WEATHER SERVICE: for Safety, for Work, for Fun - FOR LIFE